407  
ASUS43 KBIS 181510  
RWRND  
 
NORTH DAKOTA REGIONAL WEATHER ROUNDUP  
NATIONAL WEATHER SERVICE BISMARCK ND  
1000 AM CDT TUE JUN 18 2024  
 
NOTE: "FAIR" INDICATES FEW OR NO CLOUDS BELOW 12,000 FEET WITH NO  
SIGNIFICANT WEATHER AND/OR S TO VISIBILITY
.  
 
 
NDZ001>003-009>011-017-181600-  
NORTHWEST NORTH DAKOTA  
 
CITY SKY/WX TMP DP RH WIND PRES REMARKS
 
WILLISTON LGT RAIN 48 46 93 NE17 29.80R FOG  
MINOT CLOUDY 51 48 89 N13 29.74R  
MINOT AFB CLOUDY 52 48 88 N10 29.72R  

 
 
NDZ018>021-031>035-040>046-181600-  
SOUTHWEST NORTH DAKOTA  
 
CITY SKY/WX TMP DP RH WIND PRES REMARKS
 
BISMARCK LGT RAIN 54 52 93 N9G20 29.71R FOG  
DICKINSON CLOUDY 50 47 89 N6 29.75R  
GARRISON N/A 50 47 89 N10G21 29.73R  
HETTINGER ARPT CLOUDY 51 49 92 N6 29.78R  

 
 
NDZ004>008-012>016-024-026-027-054-181600-  
NORTHEAST NORTH DAKOTA  
 
CITY SKY/WX TMP DP RH WIND PRES REMARKS
 
GRAND FORKS DRIZZLE 55 51 86 N16 29.59R  
GRND FRKS AFB CLOUDY 54 53 94 N14 29.59R  
DEVILS LAKE LGT RAIN 52 51 97 NE12 29.60R FOG  

 
 
NDZ022-023-025-028>030-036>039-047>053-181600-  
SOUTHEAST NORTH DAKOTA  
 
CITY SKY/WX TMP DP RH WIND PRES REMARKS
 
FARGO CLOUDY 67 63 87 NW15 29.57R  
JAMESTOWN LGT RAIN 56 55 97 N12 29.61R FOG  

 
 
 
 
CLICK HERE TO GO TO PREVIOUS BULLETINS.

The Nexlab ND Page Main Text Page